Wind_Speed
4 6 19 20 20 19 17 16 14 12 12 12 13 13 11 9 8 7 7 5 6 7 8 9 10 11 12 12 9 8 6 4 2 1 1 2 7 10 11 12 12 14 15
1 4 16 20 20 20 18 16 14 13 12 13 13 13 12 10 9 7 7 6 6 7 8 9 9 9 10 11 10 9 9 7 4 2 3 6 11 12 12 10 12 12 14
2 7 14 20 20 20 18 17 15 13 13 13 13 13 13 11 9 8 7 6 6 6 8 8 8 7 8 9 9 8 7 5 4 1 4 7 12 14 12 10 10 11 13
3 8 11 21 20 20 19 17 16 14 14 14 14 13 13 13 10 8 8 7 6 5 6 6 6 6 7 7 5 4 4 4 3 1 5 8 7 10 9 9 8 9 11
4 8 8 20 22 21 20 18 17 15 15 14 14 14 14 14 11 9 8 8 8 6 6 6 5 5 6 5 4 3 3 4 2 4 6 5 4 8 8 6 9 11 11
6 9 10 17 25 22 20 18 17 16 16 16 15 15 15 14 12 11 10 9 8 7 6 7 6 6 7 6 5 4 3 3 2 5 7 4 6 6 7 7 9 10 12
7 10 11 14 25 23 21 19 18 17 18 17 17 17 17 16 13 12 11 10 9 8 7 7 8 8 8 7 5 4 3 3 3 6 5 4 7 3 7 8 9 10 12
10 12 11 10 22 23 23 21 19 18 18 18 18 17 18 16 14 13 12 11 10 10 9 8 8 8 8 7 6 4 4 4 4 6 8 3 5 9 8 8 10 12 13
8 10 14 14 16 23 24 22 21 20 19 18 18 18 18 17 16 14 13 13 12 11 10 9 9 9 9 8 7 6 5 5 5 7 4 4 11 5 7 9 12 13 14
5 12 15 16 16 22 25 24 22 21 20 19 19 19 19 18 17 17 16 16 15 14 13 12 11 11 11 10 8 8 7 7 6 6 7 4 8 4 8 10 12 13 14
8 12 14 19 16 19 27 26 25 23 22 21 21 21 20 20 20 19 18 18 17 16 15 15 13 13 12 12 11 10 9 8 7 7 9 8 10 7 6 10 10 13 15
13 14 13 12 16 19 29 28 27 25 25 24 23 23 22 21 20 20 19 20 19 19 17 17 16 15 15 14 12 11 10 10 7 10 11 9 8 7 12 10 11 13 15
16 19 19 15 14 17 28 30 28 27 26 25 24 24 23 22 21 22 21 21 22 21 21 21 20 19 17 16 14 12 10 7 9 12 13 12 11 13 12 11 14 14 16
17 11 15 17 16 20 19 27 25 26 27 27 26 26 25 25 24 23 23 22 23 22 22 23 23 20 18 16 16 15 12 10 7 15 15 14 13 11 11 13 15 13 14
20 11 14 17 18 20 21 23 21 24 25 29 28 27 26 27 26 24 24 22 19 21 19 18 23 23 18 15 14 16 15 13 12 15 16 16 15 12 12 15 14 15 15
7 8 8 12 8 11 16 23 23 22 21 20 22 24 26 28 27 27 26 26 26 22 20 19 16 21 19 17 14 15 18 19 18 18 19 20 17 16 16 16 15 16 18
9 15 11 10 7 7 13 17 26 20 23 25 22 24 26 24 25 26 28 27 27 24 21 20 19 18 20 23 22 20 21 23 24 23 19 20 19 19 18 18 17 19 19
8 5 8 4 3 3 3 9 16 26 32 26 29 30 31 28 27 28 29 31 28 26 27 25 24 22 20 24 23 22 23 24 22 20 19 20 20 19 20 19 19 18 18
7 5 5 6 12 12 10 14 16 21 21 22 24 27 32 28 27 33 36 34 34 35 33 31 27 26 25 27 25 23 22 24 23 19 19 20 21 20 21 19 19 19 20
7 6 8 10 13 14 16 16 19 22 23 23 26 26 28 30 29 31 36 41 38 37 36 36 33 30 28 27 28 25 23 21 21 21 20 19 21 22 22 21 22 21 21
6 2 5 8 10 13 13 14 17 19 25 28 22 26 29 31 35 34 33 37 40 42 45 37 36 32 31 29 26 25 23 21 21 22 22 23 24 24 23 23 22 22 21
4 3 4 5 10 12 13 14 16 21 23 24 29 26 23 33 29 38 37 38 41 43 42 49 40 37 32 33 31 28 21 24 29 28 27 26 25 25 26 25 22 23 19
8 6 7 10 12 14 16 18 18 18 21 25 28 33 29 29 28 32 39 40 43 41 41 42 44 43 40 38 37 27 15 17 23 32 34 32 31 30 30 28 24 22 19
7 7 11 12 15 16 18 20 21 22 24 24 26 29 33 35 34 28 33 37 45 43 42 40 42 42 45 41 40 38 32 16 14 10 20 24 26 29 28 27 24 23 23
8 11 14 16 18 20 21 21 23 25 26 29 31 31 32 34 40 37 32 33 39 45 45 41 45 44 40 44 45 45 44 34 20 18 14 19 20 23 22 24 23 23 22
11 13 15 18 22 23 24 25 25 26 27 29 31 34 35 35 39 43 45 37 35 41 46 46 45 46 42 42 44 44 48 45 43 25 23 18 21 20 19 19 22 23 22
Wind_Direction
110 159 180 176 169 165 167 169 169 169 168 165 168 172 173 162 153 145 147 155 164 166 169 167 165 167 172 179 187 191 212 229 240 199 76 126 131 132 139 143 139 140 141
135 175 196 185 177 170 172 174 175 176 176 169 168 174 179 172 161 153 153 154 164 168 169 170 171 172 180 189 198 204 217 240 227 194 162 163 156 154 149 141 136 148 146
219 224 202 196 185 177 176 177 180 181 179 174 171 175 180 179 170 166 159 156 163 172 175 176 176 180 187 193 201 212 226 227 185 172 172 164 167 158 155 161 152 158 151
250 217 215 199 194 187 181 181 182 185 182 179 177 177 182 184 180 179 171 164 166 178 185 185 188 196 201 199 206 212 207 169 142 122 154 146 173 165 170 168 158 161 162
271 223 215 212 203 196 187 185 186 187 186 183 182 181 185 187 187 189 184 176 174 182 192 195 202 211 215 224 223 211 183 166 132 165 169 209 206 208 184 187 179 174 173
250 239 248 224 206 201 192 189 190 188 188 187 186 185 188 191 194 195 193 188 184 190 196 202 209 220 226 230 223 209 191 184 148 186 198 260 206 197 199 225 199 185 183
232 246 257 220 204 203 198 194 193 191 190 190 188 186 189 195 199 200 201 196 195 200 206 215 222 230 230 236 238 222 198 157 167 200 211 230 236 237 235 228 215 202 197
207 247 250 236 212 209 202 197 196 196 194 192 191 190 192 197 201 205 206 205 205 210 215 223 232 233 237 244 248 229 203 177 187 225 227 314 272 219 225 232 224 212 207
227 231 245 242 227 217 211 201 199 199 197 198 196 195 198 200 204 207 211 211 212 219 225 230 239 241 241 243 243 235 221 217 194 242 249 294 179 203 218 236 233 222 215
277 250 243 242 238 225 215 208 203 203 200 204 200 201 202 204 207 209 213 214 217 221 226 232 239 240 240 244 245 243 233 231 221 217 242 262 194 202 227 233 228 225 218
264 244 267 252 244 228 217 215 207 206 206 207 205 204 206 208 210 211 214 216 221 225 230 235 237 243 243 245 247 249 251 245 229 203 228 253 251 226 265 255 234 230 223
289 259 258 269 246 233 217 218 216 211 211 210 212 208 209 212 214 217 217 218 223 228 233 237 241 244 245 247 251 252 257 262 241 212 217 223 207 240 270 245 239 227 227
296 260 247 256 249 250 220 219 220 218 216 217 219 216 215 216 216 220 219 220 224 229 234 237 239 241 246 250 253 254 248 247 234 228 231 232 226 271 240 240 248 234 232
305 254 234 240 247 254 235 223 222 224 225 224 224 224 219 220 222 222 223 224 226 229 237 242 246 248 248 248 255 257 249 257 221 220 235 252 250 240 236 234 238 236 233
288 263 223 239 244 248 246 219 220 226 228 233 231 233 228 226 224 227 228 229 236 230 234 246 248 246 244 248 241 240 249 249 230 232 248 252 245 255 236 230 234 234 234
229 141 182 226 245 254 242 225 222 230 233 236 231 237 235 233 230 223 221 225 234 235 234 241 253 245 237 239 237 228 246 249 244 241 252 255 264 247 238 248 243 250 245
147 143 149 122 140 225 247 239 226 227 246 239 229 249 238 233 229 225 222 222 235 232 234 240 240 242 234 238 232 235 238 243 248 252 246 248 246 247 245 245 245 255 247
154 143 169 183 194 202 213 215 218 226 245 240 233 226 242 244 234 227 222 227 227 233 238 239 234 230 225 228 239 236 237 243 247 248 249 246 245 246 241 238 236 247 253
172 208 256 259 267 279 262 234 229 235 242 242 249 241 230 242 250 239 227 226 227 225 230 238 236 231 233 236 235 240 243 245 247 248 243 249 252 252 244 237 240 250 251
185 239 268 267 275 284 277 265 247 237 237 235 240 253 251 247 251 249 239 230 228 226 225 225 234 231 236 242 237 239 247 253 250 245 241 247 254 255 253 251 241 247 254
136 218 297 301 288 288 287 279 264 256 250 241 244 244 244 251 253 250 249 242 237 235 226 224 222 228 230 227 223 236 245 243 245 249 252 247 247 253 254 248 253 242 255
54 20 333 310 307 303 295 281 276 274 262 256 242 248 249 241 256 256 250 248 243 243 236 226 218 225 229 224 217 221 228 233 238 241 246 246 247 253 255 255 249 243 252
61 21 352 331 317 307 302 300 292 280 273 273 261 251 249 246 251 247 255 255 253 248 250 247 233 224 226 224 226 213 210 222 237 243 243 248 250 248 255 254 251 247 251
52 345 344 329 316 309 307 307 308 306 299 288 280 272 261 253 252 252 249 252 254 251 247 245 258 238 231 231 222 224 224 224 208 217 231 238 241 242 245 251 249 249 251
7 352 338 319 314 312 312 309 304 300 297 296 293 284 273 264 256 250 250 252 253 256 252 246 239 245 237 237 235 226 225 225 224 224 225 233 227 235 239 247 250 252 248
4 353 338 327 325 323 318 312 305 300 295 291 288 288 286 275 262 256 254 256 250 250 254 249 245 247 255 238 235 227 232 222 224 214 217 229 234 238 241 244 246 250 247
Height
1495 1496 1497 1499 1500 1502 1505 1508 1510 1512 1515 1517 1519 1522 1524 1526 1527 1528 1530 1531 1532 1532 1533 1535 1537 1539 1541 1542 1543 1544 1545 1547 1548 1549 1549 1550 1549 1550 1551 1550 1552 1552 1552
1495 1497 1498 1499 1500 1502 1505 1508 1510 1512 1514 1516 1518 1521 1524 1526 1527 1528 1530 1531 1532 1533 1534 1536 1538 1540 1541 1542 1544 1545 1546 1548 1549 1550 1550 1550 1549 1550 1551 1553 1553 1554 1555
1495 1497 1498 1499 1500 1502 1505 1507 1509 1511 1514 1516 1517 1520 1522 1525 1527 1528 1530 1532 1533 1533 1534 1535 1537 1539 1541 1542 1543 1545 1546 1548 1549 1550 1550 1550 1550 1550 1552 1553 1555 1555 1556
1494 1496 1498 1499 1500 1502 1504 1506 1508 1510 1512 1514 1517 1519 1521 1524 1526 1527 1529 1531 1532 1533 1534 1535 1537 1538 1540 1541 1542 1544 1546 1548 1550 1550 1550 1551 1552 1553 1554 1555 1556 1557 1557
1493 1495 1497 1498 1499 1501 1503 1505 1507 1509 1511 1513 1516 1518 1520 1522 1524 1526 1528 1530 1531 1533 1534 1534 1536 1537 1538 1540 1541 1544 1546 1549 1551 1551 1551 1552 1552 1554 1555 1557 1557 1556 1558
1492 1493 1495 1496 1498 1500 1502 1504 1506 1508 1511 1512 1514 1516 1519 1521 1523 1525 1527 1529 1530 1532 1533 1534 1535 1536 1537 1538 1540 1543 1546 1549 1550 1551 1551 1553 1554 1553 1555 1557 1558 1558 1559
1492 1492 1494 1494 1496 1498 1500 1502 1505 1507 1508 1510 1512 1514 1517 1520 1522 1524 1526 1528 1529 1530 1531 1532 1534 1535 1536 1537 1539 1543 1546 1548 1548 1549 1550 1552 1553 1550 1554 1556 1557 1559 1561
1491 1491 1492 1494 1496 1497 1498 1500 1503 1505 1507 1509 1511 1513 1515 1518 1520 1523 1524 1526 1528 1529 1530 1531 1532 1533 1534 1536 1539 1542 1544 1546 1547 1547 1549 1551 1550 1551 1554 1556 1556 1559 1560
1490 1490 1490 1492 1494 1496 1497 1498 1500 1503 1505 1507 1510 1512 1514 1516 1518 1520 1523 1525 1526 1527 1528 1529 1531 1531 1533 1534 1536 1540 1543 1545 1546 1546 1547 1547 1550 1553 1553 1553 1555 1556 1559
1487 1488 1488 1490 1491 1493 1496 1497 1499 1501 1503 1505 1507 1509 1512 1515 1516 1518 1520 1522 1524 1525 1526 1528 1529 1530 1530 1532 1534 1537 1540 1542 1544 1546 1546 1546 1547 1551 1551 1551 1552 1554 1556
1487 1486 1485 1486 1488 1489 1492 1494 1495 1498 1500 1502 1504 1506 1508 1511 1513 1515 1517 1520 1522 1523 1524 1525 1526 1528 1528 1530 1532 1534 1537 1540 1542 1544 1544 1544 1545 1548 1550 1550 1550 1552 1554
1485 1484 1483 1483 1484 1484 1486 1489 1492 1494 1497 1499 1501 1502 1504 1507 1510 1512 1514 1516 1518 1520 1522 1522 1523 1525 1526 1528 1529 1531 1534 1537 1539 1540 1541 1543 1545 1545 1545 1546 1548 1550 1550
1482 1481 1479 1479 1480 1481 1482 1485 1489 1493 1495 1498 1500 1501 1502 1502 1505 1508 1510 1512 1514 1517 1518 1519 1520 1521 1523 1525 1526 1528 1530 1532 1535 1536 1538 1541 1543 1542 1542 1543 1544 1545 1547
1479 1476 1476 1477 1476 1479 1481 1482 1486 1490 1493 1495 1497 1499 1500 1500 1501 1504 1506 1508 1509 1511 1514 1516 1517 1519 1520 1522 1523 1524 1527 1529 1530 1532 1534 1536 1537 1539 1539 1539 1540 1541 1544
1476 1474 1473 1475 1474 1477 1479 1479 1482 1485 1486 1490 1493 1496 1497 1497 1497 1499 1502 1503 1505 1507 1510 1511 1513 1514 1516 1518 1520 1521 1523 1526 1528 1529 1530 1532 1534 1535 1535 1535 1535 1537 1538
1472 1472 1471 1473 1475 1475 1475 1478 1481 1482 1482 1484 1489 1493 1493 1494 1494 1494 1497 1499 1501 1502 1505 1508 1508 1510 1511 1514 1516 1518 1520 1522 1525 1526 1526 1528 1529 1531 1531 1531 1532 1533 1535
1468 1468 1469 1472 1472 1471 1472 1476 1475 1478 1480 1482 1483 1488 1491 1489 1489 1490 1493 1495 1495 1497 1500 1503 1505 1506 1508 1510 1512 1514 1516 1518 1520 1522 1522 1523 1525 1527 1527 1528 1529 1529 1530
1464 1465 1466 1470 1471 1472 1473 1472 1473 1478 1480 1478 1474 1481 1483 1484 1483 1485 1488 1489 1492 1492 1494 1498 1500 1501 1503 1504 1506 1508 1511 1513 1515 1517 1518 1518 1520 1523 1523 1524 1525 1526 1526
1460 1461 1464 1467 1469 1470 1472 1472 1470 1470 1471 1471 1475 1474 1475 1477 1477 1479 1481 1483 1486 1488 1488 1491 1494 1496 1498 1499 1501 1504 1506 1508 1510 1512 1513 1512 1514 1517 1518 1520 1522 1521 1522
1457 1460 1462 1462 1463 1467 1468 1467 1468 1467 1467 1468 1470 1471 1470 1470 1473 1474 1475 1477 1479 1481 1483 1484 1487 1490 1493 1496 1498 1499 1502 1504 1506 1506 1508 1509 1508 1510 1512 1514 1516 1517 1517
1454 1457 1460 1460 1460 1462 1465 1464 1463 1462 1463 1464 1464 1465 1465 1466 1464 1465 1468 1471 1472 1475 1475 1476 1480 1483 1485 1489 1494 1496 1497 1499 1501 1502 1503 1503 1503 1504 1506 1508 1510 1511 1512
1455 1456 1459 1461 1462 1460 1460 1462 1461 1459 1458 1457 1458 1457 1457 1458 1459 1460 1459 1462 1463 1465 1470 1470 1469 1475 1477 1481 1486 1488 1492 1494 1493 1496 1498 1498 1498 1499 1500 1502 1505 1506 1507
1457 1458 1458 1459 1461 1460 1457 1457 1456 1455 1454 1451 1450 1449 1450 1451 1452 1453 1454 1456 1458 1459 1459 1465 1465 1467 1470 1472 1477 1482 1485 1482 1484 1488 1491 1492 1493 1493 1494 1496 1498 1500 1501
1458 1459 1456 1458 1460 1458 1456 1453 1451 1448 1447 1447 1446 1444 1444 1445 1444 1445 1446 1447 1449 1452 1455 1455 1459 1462 1466 1468 1470 1475 1474 1474 1476 1480 1484 1485 1487 1488 1488 1489 1492 1494 1496
1458 1455 1455 1458 1458 1456 1453 1450 1447 1444 1442 1439 1438 1437 1437 1436 1436 1437 1438 1439 1439 1442 1444 1447 1454 1456 1455 1459 1462 1464 1468 1469 1471 1473 1475 1478 1481 1482 1483 1484 1486 1488 1490
1456 1455 1456 1457 1455 1453 1449 1446 1443 1440 1437 1434 1432 1428 1427 1427 1427 1427 1429 1430 1430 1432 1435 1437 1443 1446 1447 1452 1453 1457 1458 1460 1462 1465 1467 1472 1476 1478 1479 1480 1480 1481 1484